H1 CPF  1  COD 2017 05 31 01  6511 glonass121           
H2  1000702 9121    36401 2017 05 30 23 59 42 2017 06 04 23 44 42   900 1 1  0 0 0
H5  1.8735
H9
10 0 57906  75582.000000  0   -9489355.660   5851194.514 -22966417.362
10 0 57906  76482.000000  0  -11743995.040   4210938.498 -22270594.016
10 0 57906  77382.000000  0  -14021509.275   2804970.207 -21143235.806
10 0 57906  78282.000000  0  -16255318.637   1653133.118 -19606054.198
10 0 57906  79182.000000  0  -18377683.604    762618.438 -17688703.539
10 0 57906  80082.000000  0  -20322396.217    127878.561 -15428222.040
10 0 57906  80982.000000  0  -22027428.570   -268917.887 -12868329.293
10 0 57906  81882.000000  0  -23437428.495   -456908.200 -10058592.379
10 0 57906  82782.000000  0  -24505958.123   -475075.586  -7053475.446
10 0 57906  83682.000000  0  -25197381.127   -370368.132  -3911290.121
10 0 57906  84582.000000  0  -25488318.565   -195475.863   -693066.483
10 0 57906  85482.000000  0  -25368610.937     -6359.884   2538633.588
10 0 57906  86382.000000  0  -24841744.634    140361.405   5720937.408
10 0 57907    882.000000  0  -23924723.478    190057.486   8791892.402
10 0 57907   1782.000000  0  -22647389.547     92649.013  11691681.977
10 0 57907   2682.000000  0  -21051221.024   -195020.940  14363801.565
10 0 57907   3582.000000  0  -19187657.085   -707109.884  16756170.731
10 0 57907   4482.000000  0  -17116020.173  -1467082.907  18822158.525
10 0 57907   5382.000000  0  -14901123.148  -2486477.097  20521501.174
10 0 57907   6282.000000  0  -12610662.176  -3764177.250  21821093.504
10 0 57907   7182.000000  0  -10312505.313  -5286234.869  22695638.205
10 0 57907   8082.000000  0   -8071990.891  -7026239.250  23128140.119
10 0 57907   8982.000000  0   -5949349.179  -8946225.921  23110235.972
10 0 57907   9882.000000  0   -3997355.352 -10998084.800  22642353.352
10 0 57907  10782.000000  0   -2259311.605 -13125409.263  21733696.227
10 0 57907  11682.000000  0    -767442.139 -15265708.660  20402057.761
10 0 57907  12582.000000  0     458232.958 -17352891.420  18673464.594
10 0 57907  13482.000000  0    1410499.348 -19319914.557  16581660.100
10 0 57907  14382.000000  0    2095002.295 -21101488.420  14167437.259
10 0 57907  15282.000000  0    2529752.580 -22636723.273  11477834.787
10 0 57907  16182.000000  0    2744107.519 -23871606.877   8565212.796
10 0 57907  17082.000000  0    2777272.208 -24761209.522   5486226.609
10 0 57907  17982.000000  0    2676386.180 -25271524.538   2300719.355
10 0 57907  18882.000000  0    2494278.007 -25380867.888   -929444.557
10 0 57907  19782.000000  0    2286984.045 -25080779.026  -4141581.972
10 0 57907  20682.000000  0    2111137.125 -24376386.408  -7273405.837
10 0 57907  21582.000000  0    2021336.040 -23286223.401 -10264228.749
10 0 57907  22482.000000  0    2067607.085 -21841503.323 -13056132.081
10 0 57907  23382.000000  0    2293064.580 -20084884.756 -15595078.471
10 0 57907  24282.000000  0    2731868.675 -18068779.206 -17831946.932
10 0 57907  25182.000000  0    3407566.028 -15853271.991 -19723471.651
10 0 57907  26082.000000  0    4331882.774 -13503742.679 -21233067.456
10 0 57907  26982.000000  0    5504020.398 -11088283.475 -22331527.283
10 0 57907  27882.000000  0    6910484.307  -8675021.808 -22997579.358
10 0 57907  28782.000000  0    8525453.017  -6329456.936 -23218294.242
10 0 57907  29682.000000  0   10311673.696  -4111919.670 -22989334.559
10 0 57907  30582.000000  0   12221848.268  -2075259.074 -22315042.823
10 0 57907  31482.000000  0   14200454.091   -262850.810 -21208365.403
10 0 57907  32382.000000  0   16185925.298   1292991.343 -19690613.466
10 0 57907  33282.000000  0   18113105.792   2572135.619 -17791064.387
10 0 57907  34182.000000  0   19915873.243   3567237.857 -15546410.025
10 0 57907  35082.000000  0   21529825.892   4283807.510 -13000061.002
10 0 57907  35982.000000  0   22894920.648   4739731.229 -10201318.941
10 0 57907  36882.000000  0   23957952.326   4964273.731  -7204431.383
10 0 57907  37782.000000  0   24674769.768   4996597.658  -4067546.667
10 0 57907  38682.000000  0   25012135.009   4883864.576   -851588.354
10 0 57907  39582.000000  0   24949146.075   4678997.210   2380929.072
10 0 57907  40482.000000  0   24478162.066   4438197.812   5567120.007
10 0 57907  41382.000000  0   23605189.972   4218328.341   8644958.681
10 0 57907  42282.000000  0   22349715.390   4074264.360  11554496.295
10 0 57907  43182.000000  0   20743982.985   4056336.107  14239039.565
10 0 57907  44082.000000  0   18831755.950   4207966.673  16646266.497
10 0 57907  44982.000000  0   16666606.078   4563608.966  18729256.507
10 0 57907  45882.000000  0   14309806.022   5147070.429  20447413.860
10 0 57907  46782.000000  0   11827912.288   5970297.928  21767265.704
10 0 57907  47682.000000  0    9290140.598   7032675.468  22663118.655
10 0 57907  48582.000000  0    6765643.899   8320865.490  23117560.963
10 0 57907  49482.000000  0    4320807.194   9809201.280  23121800.511
10 0 57907  50382.000000  0    2016672.464  11460614.465  22675832.290
10 0 57907  51282.000000  0     -93398.901  13228058.872  21788432.476
10 0 57907  52182.000000  0   -1965729.052  15056370.951  20476979.683
10 0 57907  53082.000000  0   -3567909.218  16884488.452  18767107.413
10 0 57907  53982.000000  0   -4879902.953  18647933.967  16692195.038
10 0 57907  54882.000000  0   -5894622.665  20281458.796  14292707.795
10 0 57907  55782.000000  0   -6617957.347  21721735.868  11615399.285
10 0 57907  56682.000000  0   -7068252.607  22909988.528   8712392.615
10 0 57907  57582.000000  0   -7275267.223  23794444.817   5640158.714
10 0 57907  58482.000000  0   -7278652.381  24332514.385   2458412.331
10 0 57907  59382.000000  0   -7126019.719  24492597.013   -771052.186
10 0 57907  60282.000000  0   -6870681.462  24255447.483  -3985562.317
10 0 57907  61182.000000  0   -6569159.301  23615040.296  -7122782.259
10 0 57907  62082.000000  0   -6278568.047  22578898.761 -10121917.637
10 0 57907  62982.000000  0   -6053984.938  21167875.577 -12924886.919
10 0 57907  63882.000000  0   -5945915.527  19415394.675 -15477437.191
10 0 57907  64782.000000  0   -5997962.712  17366186.474 -17730183.544
10 0 57907  65682.000000  0   -6244796.582  15074569.475 -19639553.003
10 0 57907  66582.000000  0   -6710509.905  12602349.530 -21168615.890
10 0 57907  67482.000000  0   -7407427.950  10016423.533 -22287789.850
10 0 57907  68382.000000  0   -8335422.436   7386185.959 -22975404.078
10 0 57907  69282.000000  0   -9481758.607   4780844.580 -23218113.854
10 0 57907  70182.000000  0  -10821482.546   2266755.124 -23011158.036
10 0 57907  71082.000000  0  -12318333.692    -95116.313 -22358454.804
10 0 57907  71982.000000  0  -13926145.952  -2251499.374 -21272533.608
10 0 57907  72882.000000  0  -15590680.646  -4158799.810 -19774303.988
10 0 57907  73782.000000  0  -17251816.612  -5784672.966 -17892664.664
10 0 57907  74682.000000  0  -18846007.654  -7109125.608 -15663959.140
10 0 57907  75582.000000  0  -20308906.065  -8125100.611 -13131286.808
10 0 57907  76482.000000  0  -21578043.398  -8838520.156 -10343681.387
10 0 57907  77382.000000  0  -22595456.616  -9267785.434  -7355171.264
10 0 57907  78282.000000  0  -23310149.291  -9442753.630  -4223738.873
10 0 57907  79182.000000  0  -23680283.754  -9403234.923  -1010198.625
10 0 57907  80082.000000  0  -23675010.789  -9197072.755   2222985.025
10 0 57907  80982.000000  0  -23275858.312  -8877888.528   5412916.169
10 0 57907  81882.000000  0  -22477618.758  -8502586.549   8497498.425
10 0 57907  82782.000000  0  -21288696.009  -8128725.564  11416653.318
10 0 57907  83682.000000  0  -19730895.616  -7811869.266  14113501.266
10 0 57907  84582.000000  0  -17838665.698  -7603029.330  16535480.966
10 0 57907  85482.000000  0  -15657819.449  -7546310.676  18635384.202
10 0 57907  86382.000000  0  -13243792.241  -7676860.130  20372284.967
10 0 57908    882.000000  0  -10659506.135  -8019206.667  21712344.045
10 0 57908   1782.000000  0   -7972931.316  -8586064.569  22629472.886
10 0 57908   2682.000000  0   -5254446.667  -9377651.059  23105843.630
10 0 57908   3582.000000  0   -2574110.060 -10381547.881  23132235.393
10 0 57908   4482.000000  0       1047.452 -11573113.079  22708210.260
10 0 57908   5382.000000  0    2409590.600 -12916425.780  21842115.958
10 0 57908   6282.000000  0    4598005.209 -14365724.115  20550915.582
10 0 57908   7182.000000  0    6522683.420 -15867275.508  18859848.243
10 0 57908   8082.000000  0    8151487.068 -17361600.245  16801927.778
10 0 57908   8982.000000  0    9464825.409 -18785954.377  14417289.880
10 0 57908   9882.000000  0   10456203.910 -20076967.042  11752400.965
10 0 57908  10782.000000  0   11132223.315 -21173320.928   8859144.831
10 0 57908  11682.000000  0   11512031.320 -22018362.907   5793805.486
10 0 57908  12582.000000  0   11626252.243 -22562534.923   2615966.638
10 0 57908  13482.000000  0   11515441.964 -22765523.082   -612650.209
10 0 57908  14382.000000  0   11228135.211 -22598034.891  -3829385.975
10 0 57908  15282.000000  0   10818569.084 -22043130.418  -6971858.849
10 0 57908  16182.000000  0   10344180.103 -21097052.249  -9979170.162
10 0 57908  17082.000000  0    9862980.936 -19769519.904 -12793078.030
10 0 57908  17982.000000  0    9430927.598 -18083476.839 -15359116.391
10 0 57908  18882.000000  0    9099387.955 -16074301.136 -17627638.639
10 0 57908  19782.000000  0    8912817.551 -13788512.713 -19554766.640
10 0 57908  20682.000000  0    8906739.843 -11282030.755 -21103227.921
10 0 57908  21582.000000  0    9106115.007  -8618053.208 -22243066.192
10 0 57908  22482.000000  0    9524165.239  -5864645.248 -22952212.610
10 0 57908  23382.000000  0   10161705.536  -3092135.495 -23216907.763
10 0 57908  24282.000000  0   11007008.195   -370426.238 -23031966.919
10 0 57908  25182.000000  0   12036207.308   2233672.615 -22400883.718
10 0 57908  26082.000000  0   13214227.412   4658977.053 -21335770.109
99